Regional Weather Roundup
Issued by NWS

Home | Current Version | Previous Version | Graphics & Text | Print | Product List | Glossary On
Versions: 1 2 3 4 5 6 7 8 9 10 11 12 13 14 15 16 17 18 19 20 21 22 23 24 25 26 27 28 29 30 31 32 33 34 35 36 37 38 39 40 41 42 43 44 45 46 47 48 49 50
000
ASUS43 KOAX 280110
RWRNE

WEATHER ROUNDUP FOR NEBRASKA
NATIONAL WEATHER SERVICE OMAHA NE
800 PM CDT WED MAY 27 2015

NOTES: SATELLITE DATA IS BEING USED TO AUGMENT CLOUD COVER ABOVE
       12000 FEET.
       "FAIR" INDICATES FEW OR NO CLOUDS BELOW 12,000 FEET WITH NO
       SIGNIFICANT WEATHER AND/OR OBSTRUCTIONS TO VISIBILITY.

  * THESE STATIONS DO NOT REPORT WEATHER SUCH AS RAIN...SNOW OR FOG.

NEZ001>004-019>022-054>056-280200-
NEBRASKA PANHANDLE

CITY           SKY/WX    TMP DP  RH WIND       PRES   REMARKS
SCOTTSBLUFF    PTSUNNY   66  53  63 SE13      29.97F
ALLIANCE       PTSUNNY   67  54  63 S13       29.98S
CHADRON        MOSUNNY   70  55  59 S8        29.91F
KIMBALL          N/A    N/A N/A N/A MISG        N/A
SIDNEY         MOSUNNY   65  57  75 E15       30.03R
$$

NEZ057>060-069>072-079>082-280200-
SOUTHWEST NEBRASKA

CITY           SKY/WX    TMP DP  RH WIND       PRES   REMARKS
NORTH PLATTE   CLOUDY    68  57  68 SE8       30.03R
IMPERIAL       CLOUDY    62  58  86 S12       30.03R
LEXINGTON      CLOUDY    71  58  63 SE13      30.01F
MCCOOK         LGT RAIN  65  60  84 N7        30.05R
OGALLALA       CLOUDY    64  60  85 SE12      30.03R
$$

NEZ005>010-023>029-035>040-094-280200-
NORTH CENTRAL NEBRASKA

CITY           SKY/WX    TMP DP  RH WIND       PRES   REMARKS
VALENTINE      CLOUDY    69  57  65 S13       29.97S
AINSWORTH      CLOUDY    71  54  54 S12       29.99F
BROKEN BOW     CLOUDY    69  53  56 SE9       30.01F
O`NEILL        PTCLDY    74  53  48 S8        30.01R
ORD            CLOUDY    71  52  50 CALM      30.01R
THEDFORD       CLOUDY    71  53  54 S13G20    30.02R
$$

NEZ041-046>049-061>064-073>077-083>087-280200-
SOUTH CENTRAL NEBRASKA

CITY           SKY/WX    TMP DP  RH WIND       PRES   REMARKS
GRAND ISLAND   CLOUDY    74  52  46 S7        30.02S
AURORA         MOCLDY    75  46  34 SE9       30.02R
HASTINGS       CLOUDY    74  55  51 S6        30.03R
HEBRON         MOCLDY    76  53  44 SE8       30.03S
HOLDREGE       CLOUDY    70  55  59 S9        30.04R
KEARNEY *      CLOUDY    70  57  64 S10       30.03R
YORK           PTCLDY    73  48  40 SE8       30.02S
$$

NEZ011>018-030>034-042>045-280200-
NORTHEAST NEBRASKA

CITY           SKY/WX    TMP DP  RH WIND       PRES   REMARKS
NORFOLK        MOCLDY    76  47  35 S10       30.01R
ALBION         CLOUDY    72  52  49 W3        30.02R
BLAIR          MOCLDY    78  46  32 S6        30.03S
COLUMBUS *     PTCLDY    75  43  31 SE7       30.03R
FREMONT        MOCLDY    77  49  36 SE7       30.03S
TEKAMAH        PTCLDY    81  51  35 S9        30.01S
WAYNE          MOCLDY    74  54  48 S7        30.01S
$$

NEZ050>053-065>068-078-088>093-280200-
SOUTHEAST NEBRASKA

CITY           SKY/WX    TMP DP  RH WIND       PRES   REMARKS
LINCOLN        CLEAR     75  48  38 S9        30.03R
OMAHA EPPLEY   MOCLDY    78  54  43 SE8       30.02S
BEATRICE       PTCLDY    75  51  42 S10       30.04R
NEBRASKA CITY  PTCLDY    74  46  36 S6        30.04S
PLATTSMOUTH    PTCLDY    77  44  30 SE6       30.04S
$$

NEZ044-045-051>053-067-280200-
OMAHA AREA

CITY           SKY/WX    TMP DP  RH WIND       PRES   REMARKS
OMAHA EPPLEY   MOCLDY    78  54  43 SE8       30.02S
BLAIR          MOCLDY    78  46  32 S6        30.03S
FREMONT        MOCLDY    77  49  36 SE7       30.03S
MILLARD        PTCLDY    80  50  35 S6        30.02S
OFFUTT AFB     PTCLDY    78  49  37 SE2       30.02S
PLATTSMOUTH    PTCLDY    77  44  30 SE6       30.04S
WAHOO          FAIR      76  50  39 SE7       30.02S
$$



USA.gov is the U.S. government's official web portal to all federal, state and local government web resources and services.